Zurück zum Katalog

JILIN-1 GAOFEN 06A 01 XING

AktivWissenschaftSSO
NORAD 57012·PAYLOAD·🇨🇳 China
Dieser Satellitenname wurde noch nicht durch offizielle Quellen bestätigt.

Gestartet Jun 15, 2023 von Taiyuan Satellite Launch Center

Loading…

Nächste Überflüge (nächste 24 Stunden)

TLE

AktuellSource: Space-Track

Epoche: Sep 14, 2026, 13:29 UTC

1 57012U 23085J   26257.56218558  .00012751  00000-0  35658-3 0  9991
2 57012  97.5012  11.6163 0006769  81.5911 278.6100 15.36789019180486

Verfolge JILIN-1 GAOFEN 06A 01 XING in Echtzeit mit AllMySat

Download on the App Store